Del Bajio, Mexico

4:58 PM CDT on April 21, 2018 (GMT -0500)
De Guanajuato International

Weather History for MMLO - April, 2013

Change the Weather History Date:

Wednesday, April 3, 2013

  Actual Average Record
Temperature  
Mean Temperature 71 °F -  
Max Temperature 89 °F 84 °F 93 °F (2006)
Min Temperature 53 °F 51 °F 46 °F (1999)
Cooling Degree Days 6    
Growing Degree Days 21 (Base 50)    
Moisture  
Dew Point 36 °F    
Average Humidity 33    
Maximum Humidity 62    
Minimum Humidity 8    
Precipitation  
Precipitation 0.00 in - - ()
Sea Level Pressure  
Sea Level Pressure 30.00 in    
Wind  
Wind Speed 6 mph ()    
Max Wind Speed 23 mph    
Max Gust Speed 26 mph    
Visibility 8.9 miles    
Events      
Averages and records for this station are not official NWS values.
T = Trace of Precipitation, MM = Missing Value Source: Averaged Metar Reports

Daily Weather History Graph

Daily Weather History Graph

Search for Another Location

Airport or City:

Astronomy

Apr. 03, 2013 Rise Set
Actual Time 6:37 AM CST 7:01 PM CST
Civil Twilight 6:14 AM CST 7:23 PM CST
Nautical Twilight 5:48 AM CST 7:49 PM CST
Astronomical Twilight 5:22 AM CST 8:16 PM CST
Moon 1:32 AM CST (4/3) 1:01 PM CST (4/3)
Length of Visible Light 13h 08m
Length of Day
12h 24m
Last Quarter, 44% of the Moon is Illuminated
Apr 3
Last Quarter
Apr 10
New
Apr 18
First Quarter
Apr 25
Full
May 2
Last Quarter

Hourly Weather History & Observations

Time (CST) Temp. Dew Point Humidity Pressure Visibility Wind Dir Wind Speed Gust Speed Precip Events Conditions
12:44 AM 64.4 °F 48.2 °F 56% 30.18 in 8.0 mi SSW 3.5 mph - N/A   Scattered Clouds
1:57 AM 64.4 °F 46.4 °F 52% 30.15 in 8.0 mi West 8.1 mph - N/A   Scattered Clouds
2:40 AM 64.4 °F 44.6 °F 49% 29.71 in 8.0 mi West 12.7 mph - N/A   Scattered Clouds
3:44 AM 59.0 °F 42.8 °F 55% 30.12 in 8.0 mi NW 3.5 mph - N/A   Scattered Clouds
4:44 AM 57.2 °F 42.8 °F 59% 30.15 in 8.0 mi NE 4.6 mph - N/A   Scattered Clouds
5:41 AM 55.4 °F 41.0 °F 58% 29.73 in 8.0 mi Calm Calm - N/A   Scattered Clouds
6:48 AM 53.6 °F 41.0 °F 62% 30.18 in 9.0 mi NNE 3.5 mph - N/A   Scattered Clouds
7:42 AM 60.8 °F 42.8 °F 52% 30.18 in 9.0 mi Calm Calm - N/A   Partly Cloudy
8:42 AM 69.8 °F 46.4 °F 43% 29.79 in 9.0 mi Calm Calm - N/A   Partly Cloudy
9:43 AM 75.2 °F 46.4 °F 36% 30.21 in 9.0 mi WSW 5.8 mph - N/A   Clear
10:42 AM 78.8 °F 41.0 °F 26% 30.21 in 10.0 mi West 9.2 mph - N/A   Clear
11:44 AM 82.4 °F 37.4 °F 20% 29.71 in 10.0 mi West 11.5 mph 26.5 mph N/A   Clear
12:46 PM 86.0 °F 32.0 °F 14% 30.15 in 10.0 mi SW 23.0 mph - N/A   Clear
1:42 PM 89.6 °F 26.6 °F 10% 30.12 in 10.0 mi WSW 11.5 mph 26.5 mph N/A   Clear
2:43 PM 89.6 °F 23.0 °F 9% 29.70 in 10.0 mi SW 23.0 mph - N/A   Clear
3:41 PM 89.6 °F 21.2 °F 8% 30.06 in 10.0 mi WSW 23.0 mph - N/A   Clear
4:45 PM 89.6 °F 19.4 °F 8% 30.06 in 10.0 mi SSW 11.5 mph 25.3 mph N/A   Clear
5:41 PM 87.8 °F 23.0 °F 9% 29.63 in 10.0 mi WSW 17.3 mph - N/A   Clear
7:44 PM 75.2 °F 30.2 °F 19% 30.12 in 8.0 mi WSW 6.9 mph - N/A   Clear
8:42 PM 69.8 °F 32.0 °F 25% 29.73 in 8.0 mi Calm Calm - N/A   Clear
9:50 PM 68.0 °F 35.6 °F 30% 30.18 in 8.0 mi Calm Calm - N/A   Clear
10:44 PM 68.0 °F 37.4 °F 33% 30.19 in 8.0 mi Calm Calm - N/A   Clear
11:47 PM 64.4 °F 37.4 °F 37% 29.80 in 8.0 mi Calm Calm - N/A   Clear